Location: Chiroubles
(46.1812°N, 4.6660°E)
Time: 02:27:50
(UTC+00:00)

Cosmos 540 Rocket - Pass Details

Date: 15 August 2020
Orbit: 740 x 754 km, 74.1° (Epoch: 19 September)

Event Time Altitude Azimuth Distance (km) Brightness Sun altitude
Rises 21:35:55 0° 333° (NNW) 3,214 8.1 -23.4°
Reaches altitude 10° 21:38:21 10° 328° (NNW) 2,286 7.1 -23.6°
Maximum altitude 21:43:17 47° 256° (WSW) 1,001 4.1 -24.1°
Enters shadow 21:44:29 39° 218° (SW) 1,119 4.1 -24.2°
